Location: Chuathbaluk
(61.5726°N, 159.2454°W)
Time: 08:01:43
(UTC+00:00)

NUDT-PHONESAT - Pass Details

Date: 17 January 2021
Orbit: 479 x 498 km, 97.4° (Epoch: 08 March)

Event Time Altitude Azimuth Distance (km) Brightness Sun altitude
Rises 17:56:01 0° 16° (NNE) 2,611 ? -10.2°
Reaches altitude 10° 17:58:06 10° 15° (NNE) 1,723 ? -10.0°
Maximum altitude 18:01:49 79° 290° (WNW) 520 ? -9.6°
Drops below altitude 10° 18:05:30 10° 203° (SSW) 1,712 ? -9.2°
Sets 18:07:35 0° 202° (SSW) 2,591 ? -9.0°
